Weather History for Camarillo, CA

Change the Weather History Date:

Saturday, February 16, 2013

  Actual Average Record
Temperature  
Mean Temperature 64 °F 54 °F  
Max Temperature 81 °F 65 °F 86 °F (1977)
Min Temperature 47 °F 42 °F 34 °F (1990)
Degree Days  
Heating Degree Days 1 12  
Month to date heating degree days 164 186  
Since 1 July heating degree days 1010 1205  
Cooling Degree Days 0 0  
Month to date cooling degree days 0 0  
Year to date cooling degree days 20 7  
Growing Degree Days 14 (Base 50)    
Moisture  
Dew Point 24 °F    
Average Humidity 33    
Maximum Humidity 56    
Minimum Humidity 9    
Precipitation  
Precipitation 0.00 in 0.15 in 2.15 in (1986)
Month to date precipitation T 1.94  
Year to date precipitation 1.07 5.41  
Since 1 July precipitation 3.78 9.65  
Sea Level Pressure  
Sea Level Pressure 30.10 in    
Wind  
Wind Speed 8 mph (ENE)    
Max Wind Speed 14 mph    
Max Gust Speed 17 mph    
Visibility 10 miles    
Events      
T = Trace of Precipitation, MM = Missing Value Source: NWS Daily Summary

Daily Weather History Graph

Daily Weather History Graph

Search for Another Location

Airport:

Trip Planner

Search our weather history database for the weather conditions in past years. The results will help you decide how hot, cold, wet, or windy it might be!

Date:

Astronomy

Feb. 16, 2013 Rise Set
Actual Time 6:39 AM PST 5:41 PM PST
Civil Twilight 6:14 AM PST 6:06 PM PST
Nautical Twilight 5:44 AM PST 6:36 PM PST
Astronomical Twilight 5:15 AM PST 7:05 PM PST
Moon 10:15 AM PST (2/16) No Moon Set
Length of Visible Light 11h 52m
Length of Day
11h 01m
Waxing Crescent, 40% of the Moon is Illuminated
Feb 16
Waxing Crescent
Feb 17
First Quarter
Feb 25
Full
Mar 4
Last Quarter
Mar 11
New

Hourly Weather History & Observations

Time (PST) Temp. Dew Point Humidity Pressure Visibility Wind Dir Wind Speed Gust Speed Precip Events Conditions
12:55 AM 62.1 °F 19.9 °F 20% 30.17 in 10.0 mi ENE 10.4 mph - N/A   Clear
1:55 AM 61.0 °F 19.9 °F 21% 30.16 in 10.0 mi NE 9.2 mph - N/A   Clear
2:55 AM 59.0 °F 19.9 °F 22% 30.15 in 10.0 mi ENE 9.2 mph - N/A   Clear
3:55 AM 55.0 °F 21.9 °F 28% 30.15 in 10.0 mi NE 5.8 mph - N/A   Clear
4:55 AM 57.9 °F 21.0 °F 24% 30.14 in 10.0 mi ENE 10.4 mph - N/A   Clear
5:55 AM 55.0 °F 23.0 °F 29% 30.15 in 10.0 mi NE 6.9 mph - N/A   Clear
6:55 AM 57.0 °F 21.9 °F 26% 30.16 in 10.0 mi NE 6.9 mph - N/A   Clear
7:55 AM 64.9 °F 23.0 °F 20% 30.17 in 10.0 mi ENE 11.5 mph - N/A   Clear
8:55 AM 72.0 °F 21.9 °F 15% 30.17 in 10.0 mi East 11.5 mph - N/A   Clear
9:55 AM 79.0 °F 19.9 °F 11% 30.17 in 10.0 mi ENE 12.7 mph - N/A   Clear
10:55 AM 80.1 °F 16.0 °F 9% 30.16 in 10.0 mi ESE 6.9 mph - N/A   Clear
11:22 AM 75.2 °F 33.8 °F 22% 30.12 in 10.0 mi SSW 8.1 mph - N/A   Clear
11:55 AM 73.0 °F 34.0 °F 24% 30.13 in 10.0 mi SW 12.7 mph - N/A   Clear
12:55 PM 77.0 °F 30.0 °F 18% 30.09 in 10.0 mi WSW 10.4 mph - N/A   Clear
1:55 PM 78.1 °F 17.1 °F 10% 30.07 in 10.0 mi SW 11.5 mph - N/A   Clear
2:55 PM 77.0 °F 17.1 °F 10% 30.06 in 10.0 mi WSW 8.1 mph - N/A   Clear
3:55 PM 77.0 °F 16.0 °F 10% 30.04 in 10.0 mi West 8.1 mph - N/A   Clear
4:55 PM 75.0 °F 16.0 °F 11% 30.03 in 10.0 mi SW 5.8 mph - N/A   Clear
5:55 PM 66.0 °F 26.1 °F 22% 30.03 in 10.0 mi WSW 5.8 mph - N/A   Clear
6:55 PM 62.1 °F 34.0 °F 35% 30.03 in 10.0 mi SE 3.5 mph - N/A   Clear
7:55 PM 55.0 °F 32.0 °F 42% 30.02 in 10.0 mi ENE 4.6 mph - N/A   Clear
8:55 PM 54.0 °F 30.9 °F 41% 30.02 in 10.0 mi Calm Calm - N/A   Clear
9:55 PM 50.0 °F 30.0 °F 46% 30.03 in 10.0 mi NE 5.8 mph - N/A   Clear
10:55 PM 48.9 °F 33.1 °F 54% 30.01 in 10.0 mi Calm Calm - N/A   Clear
11:55 PM 48.0 °F 28.9 °F 48% 30.00 in 10.0 mi NE 3.5 mph - N/A   Clear